Simultaneous Nadir Overpasses (SNOs) Predictions

Prediction of SNOs between AQUA and GOES-15 Satellite Orbit:

Table of predicted SNOs for the next 14.0 days since TLE Epoch: 6/8/2013
Index Date Time (AQUA) AQUA Lat,Lon GOES-15 Lat,Lon Distance(km) Time Diff (sec)
1 06/09/2013 22:23:21 0.69,-131.96 0.06,-134.90 334.91 80
2 06/10/2013 10:44:35 0.42,-137.11 -0.07,-134.89 253.05 80
3 06/12/2013 10:32:22 -0.24,-134.15 -0.07,-134.81 75.74 80
4 06/14/2013 10:20:09 -0.84,-131.18 -0.07,-134.73 404.04 80
5 06/14/2013 22:41:31 -0.30,-136.37 0.08,-134.70 189.74 80
6 06/16/2013 22:29:17 0.32,-133.40 0.08,-134.62 138.03 80
7 06/17/2013 10:50:33 0.72,-138.57 -0.10,-134.61 449.58 80
8 06/18/2013 22:17:03 0.94,-130.43 0.08,-134.53 465.04 80
9 06/19/2013 10:38:18 0.15,-135.59 -0.10,-134.51 122.91 80
10 06/21/2013 10:26:04 -0.48,-132.63 -0.10,-134.41 202.90 80
11 06/21/2013 22:47:27 -0.64,-137.81 0.12,-134.36 392.40 80




NCC Satellite Simultaneous Nadir Overpasses (SNOs) Prediction Service
